Location: Roland
(31.1349°N, 85.4372°W)
Time: 22:37:10
(UTC+00:00)

S-56A Canister/Altair - Pass Details

Date: 20 April 2021
Orbit: 632 x 2501 km, 38.9° (Epoch: 10 May)

Event Time Altitude Azimuth Distance (km) Brightness Sun altitude
Exits shadow 10:05:11 10° 294° (WNW) 2,112 9.4 -13.6°
Reaches altitude 10° 10:05:17 10° 294° (WNW) 2,070 9.3 -13.5°
Maximum altitude 10:09:48 81° 208° (SSW) 639 7.0 -12.7°
Drops below altitude 10° 10:14:23 10° 121° (ESE) 2,090 10.3 -11.7°
Sets 10:16:53 0° 120° (ESE) 3,119 11.3 -11.2°
